FW3157 Weather Reports


Display with metric or nautical units.
time (UTC)temp
F
wind
direction
speed
MPH
gust
MPH
rain 1hr
in
rain 24hr
in
rain mn
in
humidity
%
barometer
mb
20260902031343 78 86 1.0 2.0 0.00 0.02 0.02 77 1016.3
20260902030837 78 86 1.0 2.0 0.00 0.02 0.02 75 1016.3
20260902030331 78 81 1.0 3.0 0.00 0.02 0.02 76 1016.3
20260902025825 77 81 2.0 4.0 0.00 0.02 0.02 77 1016.3
20260902025320 78 75 2.0 4.0 0.00 0.02 0.02 77 1016.3
20260902024813 78 21 1.0 3.0 0.00 0.02 0.02 77 1016.3
20260902024307 78 144 1.0 5.0 0.00 0.02 0.02 77 1016.3
20260902023801 78 91 1.0 5.0 0.00 0.02 0.02 77 1016.2
20260902023255 78 117 1.0 3.0 0.00 0.02 0.02 76 1016.2
20260902022750 78 99 1.0 3.0 0.01 0.02 0.02 76 1016.2
20260902022243 78 98 0.0 2.0 0.02 0.02 0.02 76 1016.3
20260902021957 78 98 1.0 6.0 0.02 0.02 0.02 76 1016.3
20260902021231 78 188 1.0 6.0 0.02 0.02 0.02 75 1016.3
20260902020725 78 177 1.0 5.0 0.02 0.02 0.02 76 1016.4
20260902020220 78 88 1.0 6.0 0.02 0.02 0.02 77 1016.3
20260902015713 79 155 2.0 6.0 0.02 0.02 0.02 78 1016.1
20260902015208 79 153 3.0 6.0 0.02 0.02 0.02 78 1016.0
20260902015149 79 127 3.0 8.0 0.02 0.02 0.02 77 1016.0
20260902014155 78 109 2.0 7.0 0.02 0.02 0.02 76 1015.9
20260902013649 79 86 2.0 8.0 0.02 0.02 0.02 74 1016.1
20260902013143 80 359 4.0 13.0 0.02 0.02 0.02 73 1016.1
20260902012854 81 90 1.0 5.0 0.00 0.00 0.00 69 1016.0
20260902012732 81 63 4.0 13.0 0.01 0.01 0.01 71 1016.1
20260902011848 81 103 1.0 3.0 0.00 0.00 0.00 69 1016.0
20260902011119 81 96 2.0 6.0 0.00 0.00 0.00 69 1016.0
20260902010613 81 85 3.0 6.0 0.00 0.00 0.00 69 1016.0
20260902010107 81 77 3.0 7.0 0.00 0.00 0.00 71 1016.1
20260902005602 81 353 4.0 7.0 0.00 0.00 0.00 72 1016.1
20260902005055 81 302 4.0 8.0 0.00 0.00 0.00 75 1016.1
20260902004549 81 300 4.0 8.0 0.00 0.00 0.00 75 1016.1
20260902004044 81 276 4.0 8.0 0.00 0.00 0.00 75 1016.1
20260902003538 81 280 4.0 8.0 0.00 0.00 0.00 75 1016.0
20260902003510 80 286 4.0 9.0 0.00 0.00 0.00 76 1016.0
20260902002748 80 280 5.0 9.0 0.00 0.00 0.00 77 1016.1
20260902002028 81 293 4.0 8.0 0.00 0.00 0.00 78 1016.1
20260902001528 81 283 3.0 8.0 0.00 0.00 0.00 77 1016.0
20260902001028 80 266 3.0 7.0 0.00 0.00 0.00 77 1016.0
20260902000528 81 284 4.0 7.0 0.00 0.00 0.00 78 1016.0
20260902000028 80 284 4.0 6.0 0.00 0.00 0.00 78 1016.0
20260902000008 80 280 3.0 6.0 0.00 0.00 0.00 78 1015.9
20260901235028 80 279 2.0 6.0 0.00 0.00 0.00 76 1015.9
20260901234528 81 316 3.0 7.0 0.00 0.00 0.00 76 1015.9
20260901234028 80 283 4.0 7.0 0.00 0.00 0.00 75 1015.8
20260901233529 81 283 4.0 7.0 0.00 0.00 0.00 74 1015.8
20260901233029 81 302 4.0 6.0 0.00 0.00 0.00 73 1015.7
20260901232529 81 305 4.0 6.0 0.00 0.00 0.00 72 1015.7
20260901232028 81 278 4.0 6.0 0.00 0.00 0.00 73 1015.7
20260901231528 81 304 4.0 6.0 0.00 0.00 0.00 74 1015.7
20260901231027 81 316 4.0 6.0 0.00 0.00 0.00 74 1015.8
20260901230526 81 299 4.0 7.0 0.00 0.00 0.00 75 1015.7
20260901230026 81 297 4.0 7.0 0.00 0.00 0.00 75 1015.8
20260901225526 81 284 4.0 7.0 0.00 0.00 0.00 75 1015.8
20260901225246 81 297 4.0 9.0 0.00 0.00 0.00 76 1015.8
20260901224523 81 318 4.0 9.0 0.00 0.00 0.00 76 1015.7
20260901224024 81 307 4.0 6.0 0.00 0.00 0.00 76 1015.7
20260901223522 81 262 3.0 6.0 0.00 0.00 0.00 77 1015.6
20260901223022 81 313 3.0 6.0 0.00 0.00 0.00 77 1015.6
20260901222745 80 308 4.0 7.0 0.00 0.00 0.00 77 1015.6
20260901222021 81 304 3.0 7.0 0.00 0.00 0.00 77 1015.6
20260901221522 81 278 3.0 6.0 0.00 0.00 0.00 77 1015.6
20260901220522 81 300 3.0 5.0 0.00 0.00 0.00 76 1015.7
20260901220022 81 311 2.0 5.0 0.00 0.00 0.00 75 1015.6
20260901215521 81 308 1.0 3.0 0.00 0.00 0.00 73 1015.6
20260901215015 81 304 1.0 3.0 0.00 0.00 0.00 72 1015.7
20260901214512 81 260 1.0 2.0 0.00 0.00 0.00 72 1015.7
20260901214012 81 260 1.0 2.0 0.00 0.00 0.00 71 1015.8
20260901213512 82 259 1.0 3.0 0.00 0.00 0.00 71 1015.7
20260901213012 82 239 1.0 3.0 0.00 0.00 0.00 70 1015.7
20260901212509 81 226 0.0 2.0 0.00 0.00 0.00 71 1015.6
20260901212009 81 226 0.0 1.0 0.00 0.00 0.00 71 1015.5
20260901211509 81 226 0.0 1.0 0.00 0.00 0.00 70 1015.5
20260901211010 81 226 0.0 1.0 0.00 0.00 0.00 71 1015.5
20260901210509 81 226 0.0 1.0 0.00 0.00 0.00 71 1015.6
20260901210007 81 226 0.0 1.0 0.00 0.00 0.00 71 1015.5
20260901205502 81 226 0.0 0.0 0.00 0.00 0.00 71 1015.4
20260901205218 81 226 0.0 1.0 0.00 0.00 0.00 71 1015.4
20260901204452 82 226 0.0 3.0 0.00 0.00 0.00 71 1015.4
20260901204210 82 194 1.0 3.0 0.00 0.00 0.00 71 1015.4
20260901203452 82 186 1.0 3.0 0.00 0.00 0.00 70 1015.4
20260901202950 82 146 1.0 3.0 0.00 0.00 0.00 70 1015.3
20260901202708 82 218 1.0 3.0 0.00 0.00 0.00 70 1015.3
20260901202216 82 226 0.0 3.0 0.00 0.00 0.00 69 1015.3
20260901201450 82 163 0.0 2.0 0.00 0.00 0.00 69 1015.4
20260901201208 82 160 0.0 2.0 0.00 0.00 0.00 69 1015.3
20260901200448 82 189 1.0 4.0 0.00 0.00 0.00 69 1015.3
20260901195948 82 191 1.0 4.0 0.00 0.00 0.00 68 1015.4
20260901195448 82 219 0.0 2.0 0.00 0.00 0.00 68 1015.3
20260901194948 82 196 0.0 1.0 0.00 0.00 0.00 68 1015.3
20260901194448 82 196 1.0 3.0 0.00 0.00 0.00 68 1015.2
20260901194434 82 207 1.0 3.0 0.00 0.00 0.00 69 1015.3
20260901193446 82 213 1.0 2.0 0.00 0.00 0.00 68 1015.3
20260901192946 83 213 0.0 2.0 0.00 0.00 0.00 67 1015.3
20260901192443 82 313 0.0 0.0 0.00 0.00 0.00 65 1015.3
20260901192419 82 313 0.0 0.0 0.00 0.00 0.00 65 1015.2
20260901191440 83 313 0.0 2.0 0.00 0.00 0.00 65 1015.2
20260901190940 83 314 0.0 2.0 0.00 0.00 0.00 65 1015.2
20260901190440 83 92 1.0 3.0 0.00 0.00 0.00 65 1015.2
20260901190207 83 92 1.0 3.0 0.00 0.00 0.00 65 1015.1
20260901185930 83 85 1.0 3.0 0.00 0.00 0.00 65 1015.1
20260901184940 83 110 1.0 2.0 0.00 0.00 0.00 65 1015.1
20260901184440 83 110 0.0 2.0 0.00 0.00 0.00 66 1015.0
20260901183935 83 141 0.0 2.0 0.00 0.00 0.00 66 1014.8
20260901183923 83 150 1.0 4.0 0.00 0.00 0.00 66 1014.6
20260901182936 83 99 1.0 4.0 0.00 0.00 0.00 66 1014.5
20260901182436 83 125 0.0 2.0 0.00 0.00 0.00 66 1014.5
20260901182153 83 148 0.0 2.0 0.00 0.00 0.00 66 1014.4
20260901181436 83 168 0.0 2.0 0.00 0.00 0.00 66 1014.3
20260901180936 83 133 0.0 3.0 0.00 0.00 0.00 66 1014.2
20260901180658 83 174 1.0 3.0 0.00 0.00 0.00 66 1014.0
20260901180154 83 203 1.0 4.0 0.00 0.00 0.00 65 1014.0
20260901175436 83 201 1.0 6.0 0.00 0.00 0.00 65 1013.9
20260901174935 83 213 1.0 6.0 0.00 0.00 0.00 65 1013.8
20260901174705 83 248 1.0 5.0 0.00 0.00 0.00 64 1013.8
20260901173932 83 172 2.0 6.0 0.00 0.00 0.00 64 1013.8
20260901173432 83 159 2.0 9.0 0.00 0.00 0.00 64 1013.6
20260901172933 84 121 3.0 9.0 0.00 0.00 0.00 64 1013.7
20260901172429 84 131 4.0 8.0 0.00 0.00 0.00 63 1013.6
20260901171930 84 127 4.0 9.0 0.00 0.00 0.00 63 1013.7
20260901171647 84 123 3.0 9.0 0.00 0.00 0.00 62 1013.8
20260901170927 84 149 3.0 9.0 0.00 0.00 0.00 62 1013.8
20260901170427 84 148 3.0 9.0 0.00 0.00 0.00 62 1013.8
20260901165927 84 236 4.0 8.0 0.00 0.00 0.00 62 1013.8
20260901165429 85 153 4.0 7.0 0.00 0.00 0.00 61 1013.9
20260901164928 85 120 4.0 13.0 0.00 0.00 0.00 60 1013.9
20260901164427 85 137 4.0 13.0 0.00 0.00 0.00 60 1013.8
20260901163928 85 225 5.0 12.0 0.00 0.00 0.00 60 1013.8
20260901163641 86 148 4.0 9.0 0.00 0.00 0.00 60 1013.7
20260901163143 86 151 3.0 9.0 0.00 0.00 0.00 60 1013.8
20260901162410 86 184 4.0 9.0 0.00 0.00 0.00 61 1013.7
20260901162350 87 172 4.0 9.0 0.00 0.00 0.00 61 1013.7
20260901161357 87 154 3.0 8.0 0.00 0.00 0.00 61 1013.7
20260901161107 87 209 3.0 9.0 0.00 0.00 0.00 60 1013.7
20260901160349 88 194 3.0 9.0 0.00 0.00 0.00 61 1013.5
20260901155834 88 184 3.0 9.0 0.00 0.00 0.00 60 1013.4
20260901155545 88 210 4.0 9.0 0.00 0.00 0.00 59 1013.4
20260901154822 88 160 5.0 9.0 0.00 0.00 0.00 58 1013.4
20260901154316 88 184 5.0 9.0 0.00 0.00 0.00 58 1013.4
20260901153810 88 197 5.0 10.0 0.00 0.00 0.00 57 1013.4
20260901153304 88 212 6.0 11.0 0.00 0.00 0.00 56 1013.4
20260901153022 89 165 5.0 11.0 0.00 0.00 0.00 54 1013.5
20260901152253 89 207 6.0 10.0 0.00 0.00 0.00 54 1013.5
20260901152006 89 176 5.0 10.0 0.00 0.00 0.00 53 1013.6
20260901151241 89 230 5.0 9.0 0.00 0.00 0.00 53 1013.5
20260901150735 89 94 5.0 10.0 0.00 0.00 0.00 53 1013.5
20260901150228 89 168 4.0 10.0 0.00 0.00 0.00 53 1013.5
20260901150205 90 228 4.0 8.0 0.00 0.00 0.00 52 1013.5
20260901145217 90 205 4.0 9.0 0.00 0.00 0.00 52 1013.5
20260901144711 90 211 4.0 9.0 0.00 0.00 0.00 52 1013.5
20260901144421 90 213 4.0 10.0 0.00 0.00 0.00 52 1013.4
20260901143659 90 212 5.0 11.0 0.00 0.00 0.00 51 1013.5
20260901143152 91 259 3.0 11.0 0.00 0.00 0.00 50 1013.5
20260901142646 91 172 3.0 7.0 0.00 0.00 0.00 49 1013.5
20260901142141 91 194 3.0 10.0 0.00 0.00 0.00 51 1013.5
20260901142127 91 169 4.0 10.0 0.00 0.00 0.00 50 1013.5
20260901141129 90 162 5.0 10.0 0.00 0.00 0.00 51 1013.5
20260901140627 90 250 6.0 12.0 0.00 0.00 0.00 51 1013.6
20260901140127 90 105 6.0 12.0 0.00 0.00 0.00 50 1013.6
20260901135627 90 182 6.0 11.0 0.00 0.00 0.00 51 1013.5
20260901135133 91 248 5.0 11.0 0.00 0.00 0.00 49 1013.6
20260901134627 91 213 4.0 10.0 0.00 0.00 0.00 48 1013.6
20260901134127 91 240 4.0 9.0 0.00 0.00 0.00 48 1013.6
20260901133627 91 79 4.0 9.0 0.00 0.00 0.00 48 1013.7
20260901133127 91 172 4.0 9.0 0.00 0.00 0.00 49 1013.8
20260901133109 91 250 4.0 13.0 0.00 0.00 0.00 50 1013.8
20260901132127 91 214 3.0 13.0 0.00 0.00 0.00 53 1013.8
20260901131627 91 183 3.0 8.0 0.00 0.00 0.00 53 1013.9
20260901131351 90 203 4.0 10.0 0.00 0.00 0.00 51 1013.9
20260901130625 90 275 4.0 10.0 0.00 0.00 0.00 51 1013.9
20260901130125 90 233 3.0 9.0 0.00 0.00 0.00 50 1014.0
20260901125627 91 202 3.0 8.0 0.00 0.00 0.00 50 1014.1
20260901125127 91 172 2.0 7.0 0.00 0.00 0.00 51 1014.1
20260901124626 90 217 2.0 7.0 0.00 0.00 0.00 52 1014.1
20260901124125 90 224 3.0 8.0 0.00 0.00 0.00 53 1014.1
20260901123625 89 245 4.0 9.0 0.00 0.00 0.00 54 1014.1
20260901123125 89 207 4.0 11.0 0.00 0.00 0.00 53 1014.1
20260901122622 89 193 3.0 11.0 0.00 0.00 0.00 53 1014.2
20260901122120 89 131 4.0 10.0 0.00 0.00 0.00 52 1014.3
20260901121621 89 272 4.0 9.0 0.00 0.00 0.00 52 1014.4
20260901121121 89 241 4.0 10.0 0.00 0.00 0.00 53 1014.5
20260901120620 89 209 4.0 10.0 0.00 0.00 0.00 51 1014.6
20260901120120 89 193 5.0 10.0 0.00 0.00 0.00 52 1014.6
20260901115620 88 100 5.0 11.0 0.00 0.00 0.00 51 1014.7
20260901115123 88 276 5.0 12.0 0.00 0.00 0.00 53 1014.7
20260901114620 88 259 5.0 12.0 0.00 0.00 0.00 53 1014.7
20260901114120 88 267 5.0 10.0 0.00 0.00 0.00 54 1014.7
20260901113621 88 226 4.0 10.0 0.00 0.00 0.00 56 1014.7
20260901113121 87 270 4.0 9.0 0.00 0.00 0.00 58 1014.7
20260901112845 87 231 4.0 10.0 0.00 0.00 0.00 56 1014.8
20260901112115 87 299 3.0 10.0 0.00 0.00 0.00 59 1014.7
20260901111612 87 268 3.0 8.0 0.00 0.00 0.00 58 1014.8
20260901111113 87 280 5.0 11.0 0.00 0.00 0.00 61 1014.8
20260901110613 86 236 6.0 11.0 0.00 0.00 0.00 61 1014.8
20260901110113 86 267 5.0 11.0 0.00 0.00 0.00 60 1014.9
20260901105613 87 266 4.0 11.0 0.00 0.00 0.00 59 1014.9
20260901105113 87 217 4.0 11.0 0.00 0.00 0.00 59 1014.9
20260901104612 87 236 4.0 11.0 0.00 0.00 0.00 60 1014.9
20260901104112 87 231 5.0 11.0 0.00 0.00 0.00 62 1015.0
20260901103613 87 254 4.0 11.0 0.00 0.00 0.00 60 1015.1
20260901103113 87 284 3.0 9.0 0.00 0.00 0.00 58 1015.0
20260901102612 87 265 3.0 8.0 0.00 0.00 0.00 55 1015.1
20260901102110 87 204 3.0 8.0 0.00 0.00 0.00 57 1015.2
20260901101611 87 276 4.0 9.0 0.00 0.00 0.00 57 1015.2
20260901101110 86 274 4.0 10.0 0.00 0.00 0.00 55 1015.3
20260901100611 86 212 4.0 10.0 0.00 0.00 0.00 55 1015.4
20260901100107 85 245 5.0 9.0 0.00 0.00 0.00 54 1015.4
20260901095606 85 234 5.0 9.0 0.00 0.00 0.00 57 1015.4
20260901095107 85 324 5.0 9.0 0.00 0.00 0.00 56 1015.3
20260901094607 85 243 5.0 9.0 0.00 0.00 0.00 56 1015.3
20260901094107 85 207 5.0 9.0 0.00 0.00 0.00 59 1015.3
20260901093814 85 295 3.0 7.0 0.00 0.00 0.00 59 1015.2
20260901093656 85 262 4.0 8.0 0.00 0.00 0.00 60 1015.2
20260901092607 85 222 3.0 6.0 0.00 0.00 0.00 57 1015.3
20260901092107 85 255 2.0 5.0 0.00 0.00 0.00 59 1015.4
20260901091602 85 295 2.0 6.0 0.00 0.00 0.00 57 1015.5
20260901091102 84 231 3.0 7.0 0.00 0.00 0.00 56 1015.5
20260901090602 84 295 4.0 7.0 0.00 0.00 0.00 57 1015.5
20260901085602 84 350 3.0 6.0 0.00 0.00 0.00 58 1015.5
20260901085104 84 281 3.0 7.0 0.00 0.00 0.00 58 1015.5
20260901084103 84 280 3.0 6.0 0.00 0.00 0.00 60 1015.4
20260901083604 84 288 3.0 5.0 0.00 0.00 0.00 60 1015.4
20260901083059 84 270 2.0 6.0 0.00 0.00 0.00 58 1015.4
20260901082600 84 262 2.0 6.0 0.00 0.00 0.00 60 1015.4
20260901082057 83 296 2.0 4.0 0.00 0.00 0.00 63 1015.4
20260901081557 83 258 2.0 5.0 0.00 0.00 0.00 65 1015.4
20260901081056 83 276 3.0 5.0 0.00 0.00 0.00 65 1015.4
20260901080557 82 293 3.0 5.0 0.00 0.00 0.00 66 1015.5
20260901080057 82 293 3.0 5.0 0.00 0.00 0.00 68 1015.5
20260901075554 82 256 3.0 6.0 0.00 0.00 0.00 67 1015.5
20260901075055 82 238 3.0 7.0 0.00 0.00 0.00 67 1015.5
20260901074818 82 254 3.0 7.0 0.00 0.00 0.00 68 1015.5
20260901074054 81 269 3.0 6.0 0.00 0.00 0.00 69 1015.5
20260901073555 81 264 4.0 7.0 0.00 0.00 0.00 70 1015.5
20260901073054 81 261 4.0 8.0 0.00 0.00 0.00 71 1015.5
20260901072552 81 283 5.0 9.0 0.00 0.00 0.00 71 1015.5
20260901072052 81 260 4.0 9.0 0.00 0.00 0.00 71 1015.4
20260901071552 82 250 3.0 7.0 0.00 0.00 0.00 68 1015.4
20260901071045 82 250 3.0 7.0 0.00 0.00 0.00 67 1015.4
20260901070540 82 248 4.0 7.0 0.00 0.00 0.00 68 1015.3
20260901070033 82 260 4.0 7.0 0.00 0.00 0.00 68 1015.3
20260901065528 82 265 2.0 5.0 0.00 0.00 0.00 66 1015.2
20260901065022 83 268 1.0 4.0 0.00 0.00 0.00 62 1015.2
20260901064516 84 236 0.0 2.0 0.00 0.00 0.00 58 1015.2
20260901064010 84 163 0.0 1.0 0.00 0.00 0.00 60 1015.2
20260901063504 83 146 0.0 3.0 0.00 0.00 0.00 62 1015.1
20260901062957 83 79 1.0 3.0 0.00 0.00 0.00 62 1015.0
20260901062452 82 114 1.0 2.0 0.00 0.00 0.00 64 1015.1
20260901061946 81 112 1.0 3.0 0.00 0.00 0.00 66 1015.1
20260901061439 81 51 1.0 3.0 0.00 0.00 0.00 67 1015.1
20260901060934 81 30 1.0 3.0 0.00 0.00 0.00 68 1015.1
20260901060427 80 30 1.0 4.0 0.00 0.00 0.00 70 1015.2
20260901055922 79 19 1.0 4.0 0.00 0.00 0.00 72 1015.3
20260901055416 79 300 2.0 4.0 0.00 0.00 0.00 72 1015.3
20260901054910 78 296 3.0 4.0 0.00 0.00 0.00 73 1015.3
20260901054404 78 304 2.0 6.0 0.00 0.00 0.00 73 1015.3
20260901053857 78 6 2.0 6.0 0.00 0.00 0.00 74 1015.3
20260901053352 78 289 3.0 5.0 0.00 0.00 0.00 76 1015.3
20260901053103 77 297 3.0 6.0 0.00 0.00 0.00 76 1015.3
20260901052340 77 315 4.0 6.0 0.00 0.00 0.00 77 1015.3
20260901051834 77 301 4.0 6.0 0.00 0.00 0.00 78 1015.3
20260901051547 77 315 4.0 6.0 0.00 0.00 0.00 78 1015.3
20260901050823 77 293 4.0 6.0 0.00 0.00 0.00 78 1015.2
20260901050316 77 314 4.0 7.0 0.00 0.00 0.00 78 1015.3
20260901045810 77 281 3.0 7.0 0.00 0.00 0.00 78 1015.3
20260901045306 76 274 4.0 8.0 0.00 0.00 0.00 77 1015.2
20260901045006 77 294 3.0 9.0 0.00 0.00 0.00 77 1015.1
20260901044841 77 279 4.0 9.0 0.00 0.00 0.00 78 1015.1
20260901044007 77 255 4.0 6.0 0.00 0.00 0.00 78 1015.0
20260901043240 77 257 4.0 7.0 0.00 0.00 0.00 79 1014.9
20260901042734 77 277 3.0 7.0 0.00 0.00 0.00 78 1014.9
20260901042227 78 272 2.0 5.0 0.00 0.00 0.00 76 1014.8
20260901041945 77 253 1.0 2.0 0.00 0.00 0.00 76 1014.7
20260901041216 77 99 0.0 1.0 0.00 0.00 0.00 68 1014.7
20260901040710 77 99 0.0 1.0 0.00 0.00 0.00 68 1014.6
20260901040424 77 99 0.0 1.0 0.00 0.00 0.00 68 1014.5
20260901035658 77 99 0.0 1.0 0.00 0.00 0.00 67 1014.5
20260901035151 77 99 0.0 0.0 0.00 0.00 0.00 68 1014.3
20260901034645 77 99 0.0 0.0 0.00 0.00 0.00 68 1014.4
20260901034140 77 99 0.0 0.0 0.00 0.00 0.00 67 1014.3
20260901033633 77 99 0.0 1.0 0.00 0.00 0.00 67 1014.3
20260901033127 78 99 0.0 0.0 0.00 0.00 0.00 67 1014.3
20260901032845 78 99 0.0 2.0 0.00 0.00 0.00 67 1014.2
20260901032115 78 99 1.0 3.0 0.00 0.00 0.00 67 1014.2